Погода в Турунтаеве

Россия / Томская область     56°38′42″N   85°58′12″E
темп.,
°C
ветер,
м/с
пор.,
м/с
влажн.,
%
обл.,
%
осадки,
мм/ч
давл.,
гПа
погр.,
м
6 марта, сб
сб601:00−5юз7149294 0.4 10121004
04:00−5юз7149199 0.2 1012810
07:00−5ююз61490100 0.3 1012786
10:00−5ююз81493100 0.4 1011917
13:00−4ююз91591100 1.3 10091121
16:00−5юз91590100 0.5 10081161
19:00−5юз81492100 1.0 1008985
22:00−5ююз71589100 0.3 1006881
7 марта, вс
вс701:00−3юз81589100 0.5 1006921
04:00−4зюз61485100 0.3 1006996
07:00−7зюз5138595 0.3 1008564
10:00−9зюз7138334 0.0 1010721
13:00−7зюз7117918 0.0 1013993
16:00−7зюз7118167 0.1 10151364
19:00−9зюз5128583 0.1 1017413
22:00−11зюз5119189 0.0 1020340
8 марта, пн
пн801:00−14юз449550 0.1 102375
04:00−15ююз349679 0.0 102366
07:00−14ююв369489 0.0 1022109
10:00−11ююв5118497 0.0 1018299
13:00−5ююв7128898 0.0 1013653
16:00−2ю71388100 0.0 1008768
19:000ю71582100 0.0 1004894
22:00−2юз91882100 0.0 1002960
9 марта, вт
вт901:00−3юз81690100 0.2 10031016
04:00−9зюз8168793 0.2 1008732
07:00−11зюз7148994 0.2 1014734
10:00−11зюз81388100 0.1 1017798
13:00−10зюз71185100 0.1 1020878
16:00−9зюз71083100 0.1 1022936
19:00−11юз489098 0.1 1022157
22:00−14ююз499162 0.0 1022163
10 марта, ср
ср1001:00−13ю489278 0.0 1020209
04:00−11ю51290100 0.0 1017366
07:00−12ююз51289100 0.0 1014294
10:00−8ююз7138590 0.0 1013595
13:00−5юз7128471 0.0 1013813
16:00−4зюз6107978 0.0 1013970
19:00−7юз378986 0.0 1014165
22:00−10юз3694100 0.0 101595